| time (UTC) | temp C | wind direction | speed KPH | gust KPH | rain 1hr cm | rain 24hr cm | rain mn cm | humidity % | barometer mb |
| 20260902095825 | 17 | 339 | 4.8 | 11.3 | 0.00 | 0.00 | 0.00 | 50 | 1023.0 |
| 20260902095322 | 18 | 349 | 3.2 | 3.2 | 0.00 | 0.00 | 0.00 | 48 | 1023.0 |
| 20260902094823 | 18 | 318 | 3.2 | 6.4 | 0.00 | 0.00 | 0.00 | 46 | 1023.0 |
| 20260902094323 | 18 | 190 | 4.8 | 6.4 | 0.00 | 0.00 | 0.00 | 45 | 1023.0 |
| 20260902093823 | 17 | 314 | 0.0 | 3.2 | 0.00 | 0.00 | 0.00 | 49 | 1023.0 |
| 20260902093322 | 17 | 289 | 4.8 | 6.4 | 0.00 | 0.00 | 0.00 | 50 | 1023.0 |
| 20260902092823 | 17 | 267 | 1.6 | 6.4 | 0.00 | 0.00 | 0.00 | 49 | 1023.0 |
| 20260902092324 | 16 | 5 | 4.8 | 8.0 | 0.00 | 0.00 | 0.00 | 51 | 1023.0 |
| 20260902091824 | 16 | 355 | 3.2 | 6.4 | 0.00 | 0.00 | 0.00 | 57 | 1023.0 |
| 20260902091323 | 16 | 316 | 3.2 | 4.8 | 0.00 | 0.00 | 0.00 | 61 | 1023.0 |
| 20260902090823 | 15 | 340 | 6.4 | 11.3 | 0.00 | 0.00 | 0.00 | 56 | 1023.0 |
| 20260902090322 | 16 | 9 | 3.2 | 4.8 | 0.00 | 0.00 | 0.00 | 67 | 1023.0 |
| 20260902085822 | 15 | 346 | 1.6 | 3.2 | 0.00 | 0.00 | 0.00 | 65 | 1023.0 |
| 20260902085323 | 15 | 5 | 3.2 | 4.8 | 0.00 | 0.00 | 0.00 | 69 | 1023.0 |
| 20260902084822 | 15 | 5 | 3.2 | 6.4 | 0.00 | 0.00 | 0.00 | 68 | 1023.0 |
| 20260902084324 | 14 | 359 | 3.2 | 8.0 | 0.00 | 0.00 | 0.00 | 69 | 1023.0 |
| 20260902083822 | 14 | 11 | 1.6 | 3.2 | 0.00 | 0.00 | 0.00 | 75 | 1023.0 |
| 20260902083322 | 14 | 323 | 3.2 | 4.8 | 0.00 | 0.00 | 0.00 | 75 | 1023.0 |
| 20260902082822 | 14 | 293 | 3.2 | 4.8 | 0.00 | 0.00 | 0.00 | 75 | 1023.0 |
| 20260902082322 | 14 | 355 | 1.6 | 4.8 | 0.00 | 0.00 | 0.00 | 75 | 1023.0 |
| 20260902081822 | 13 | 351 | 1.6 | 3.2 | 0.00 | 0.00 | 0.00 | 76 | 1023.0 |
| 20260902081323 | 13 | 357 | 3.2 | 4.8 | 0.00 | 0.00 | 0.00 | 75 | 1023.0 |
| 20260902080823 | 13 | 346 | 4.8 | 8.0 | 0.00 | 0.00 | 0.00 | 75 | 1023.0 |
| 20260902080322 | 13 | 19 | 3.2 | 6.4 | 0.00 | 0.00 | 0.00 | 75 | 1023.0 |
| 20260902075824 | 14 | 342 | 3.2 | 6.4 | 0.00 | 0.00 | 0.00 | 74 | 1024.0 |
| 20260902075323 | 13 | 340 | 4.8 | 6.4 | 0.00 | 0.00 | 0.00 | 74 | 1024.0 |
| 20260902074822 | 13 | 342 | 4.8 | 8.0 | 0.00 | 0.00 | 0.00 | 75 | 1024.0 |
| 20260902074322 | 13 | 351 | 3.2 | 6.4 | 0.00 | 0.00 | 0.00 | 76 | 1024.0 |
| 20260902073823 | 13 | 3 | 1.6 | 3.2 | 0.00 | 0.00 | 0.00 | 78 | 1024.0 |
| 20260902073323 | 13 | 18 | 1.6 | 4.8 | 0.00 | 0.00 | 0.00 | 77 | 1024.0 |
| 20260902072823 | 13 | 358 | 6.4 | 8.0 | 0.00 | 0.00 | 0.00 | 75 | 1024.0 |
| 20260902072322 | 13 | 354 | 6.4 | 9.7 | 0.00 | 0.00 | 0.00 | 75 | 1024.0 |
| 20260902071822 | 13 | 344 | 1.6 | 4.8 | 0.00 | 0.00 | 0.00 | 76 | 1024.0 |
| 20260902071322 | 14 | 12 | 3.2 | 6.4 | 0.00 | 0.00 | 0.00 | 74 | 1024.0 |
| 20260902070823 | 14 | 360 | 0.0 | 0.0 | 0.00 | 0.00 | 0.00 | 74 | 1023.0 |
| 20260902070323 | 14 | 360 | 0.0 | 0.0 | 0.00 | 0.00 | 0.00 | 74 | 1024.0 |
| 20260902065822 | 14 | 289 | 1.6 | 3.2 | 0.00 | 0.00 | 0.00 | 74 | 1024.0 |
| 20260902065322 | 14 | 288 | 4.8 | 6.4 | 0.00 | 0.00 | 0.00 | 76 | 1024.0 |
| 20260902064823 | 15 | 132 | 3.2 | 4.8 | 0.00 | 0.00 | 0.00 | 73 | 1024.0 |
| 20260902064322 | 15 | 289 | 1.6 | 3.2 | 0.00 | 0.00 | 0.00 | 71 | 1024.0 |
| 20260902063824 | 15 | 46 | 1.6 | 3.2 | 0.00 | 0.00 | 0.00 | 70 | 1023.0 |
| 20260902063323 | 15 | 21 | 1.6 | 3.2 | 0.00 | 0.00 | 0.00 | 70 | 1023.0 |
| 20260902062823 | 15 | 322 | 0.0 | 1.6 | 0.00 | 0.00 | 0.00 | 70 | 1023.0 |
| 20260902062322 | 16 | 41 | 0.0 | 3.2 | 0.00 | 0.00 | 0.00 | 69 | 1023.0 |
| 20260902061822 | 16 | 21 | 1.6 | 3.2 | 0.00 | 0.00 | 0.00 | 69 | 1023.0 |
| 20260902061324 | 16 | 1 | 3.2 | 9.7 | 0.00 | 0.00 | 0.00 | 69 | 1023.0 |
| 20260902060822 | 16 | 322 | 3.2 | 3.2 | 0.00 | 0.00 | 0.00 | 70 | 1023.0 |
| 20260902060323 | 16 | 319 | 1.6 | 3.2 | 0.00 | 0.00 | 0.00 | 70 | 1023.0 |
| 20260902055823 | 16 | 258 | 1.6 | 3.2 | 0.00 | 0.00 | 0.00 | 69 | 1024.0 |
| 20260902055322 | 16 | 359 | 1.6 | 3.2 | 0.00 | 0.00 | 0.00 | 68 | 1024.0 |
| 20260902054824 | 16 | 348 | 3.2 | 4.8 | 0.00 | 0.00 | 0.00 | 69 | 1024.0 |
| 20260902054323 | 16 | 348 | 1.6 | 3.2 | 0.00 | 0.00 | 0.00 | 69 | 1024.0 |
| 20260902053823 | 16 | 322 | 1.6 | 3.2 | 0.00 | 0.00 | 0.00 | 68 | 1024.0 |
| 20260902053323 | 16 | 295 | 3.2 | 3.2 | 0.00 | 0.00 | 0.00 | 70 | 1024.0 |
| 20260902052823 | 16 | 334 | 1.6 | 3.2 | 0.00 | 0.00 | 0.00 | 72 | 1024.0 |
| 20260902052324 | 16 | 300 | 3.2 | 3.2 | 0.00 | 0.00 | 0.00 | 71 | 1024.0 |
| 20260902051822 | 16 | 287 | 4.8 | 8.0 | 0.00 | 0.00 | 0.00 | 71 | 1024.0 |
| 20260902051324 | 16 | 288 | 6.4 | 9.7 | 0.00 | 0.00 | 0.00 | 68 | 1024.0 |
| 20260902050822 | 17 | 293 | 6.4 | 8.0 | 0.00 | 0.00 | 0.00 | 68 | 1024.0 |
| 20260902050324 | 17 | 290 | 8.0 | 11.3 | 0.00 | 0.00 | 0.00 | 66 | 1024.0 |
| 20260902045822 | 17 | 290 | 0.0 | 3.2 | 0.00 | 0.00 | 0.00 | 63 | 1024.0 |
| 20260902045323 | 18 | 222 | 0.0 | 1.6 | 0.00 | 0.00 | 0.00 | 63 | 1024.0 |
| 20260902044824 | 18 | 201 | 1.6 | 3.2 | 0.00 | 0.00 | 0.00 | 62 | 1024.0 |
| 20260902044322 | 18 | 209 | 0.0 | 3.2 | 0.00 | 0.00 | 0.00 | 62 | 1024.0 |
| 20260902043822 | 18 | 201 | 1.6 | 3.2 | 0.00 | 0.00 | 0.00 | 61 | 1024.0 |
| 20260902043323 | 18 | 182 | 1.6 | 3.2 | 0.00 | 0.00 | 0.00 | 61 | 1024.0 |
| 20260902042822 | 18 | 186 | 3.2 | 4.8 | 0.00 | 0.00 | 0.00 | 61 | 1024.0 |
| 20260902042323 | 18 | 159 | 3.2 | 6.4 | 0.00 | 0.00 | 0.00 | 60 | 1024.0 |
| 20260902041824 | 18 | 165 | 3.2 | 4.8 | 0.00 | 0.00 | 0.00 | 59 | 1024.0 |
| 20260902041324 | 18 | 165 | 1.6 | 3.2 | 0.00 | 0.00 | 0.00 | 59 | 1024.0 |
| 20260902040822 | 19 | 171 | 3.2 | 4.8 | 0.00 | 0.00 | 0.00 | 58 | 1024.0 |
| 20260902040323 | 19 | 170 | 1.6 | 3.2 | 0.00 | 0.00 | 0.00 | 57 | 1024.0 |
| 20260902035823 | 19 | 135 | 3.2 | 6.4 | 0.00 | 0.00 | 0.00 | 57 | 1024.0 |
| 20260902035323 | 19 | 155 | 3.2 | 6.4 | 0.00 | 0.00 | 0.00 | 56 | 1024.0 |
| 20260902034823 | 19 | 144 | 4.8 | 8.0 | 0.00 | 0.00 | 0.00 | 55 | 1024.0 |
| 20260902034322 | 19 | 164 | 6.4 | 9.7 | 0.00 | 0.00 | 0.00 | 55 | 1024.0 |
| 20260902033822 | 19 | 154 | 4.8 | 6.4 | 0.00 | 0.00 | 0.00 | 55 | 1024.0 |
| 20260902033322 | 19 | 174 | 4.8 | 8.0 | 0.00 | 0.00 | 0.00 | 55 | 1024.0 |
| 20260902032823 | 19 | 178 | 4.8 | 8.0 | 0.00 | 0.00 | 0.00 | 54 | 1024.0 |
| 20260902032323 | 19 | 179 | 3.2 | 4.8 | 0.00 | 0.00 | 0.00 | 55 | 1024.0 |
| 20260902031823 | 19 | 191 | 4.8 | 6.4 | 0.00 | 0.00 | 0.00 | 55 | 1024.0 |
| 20260902031322 | 19 | 209 | 3.2 | 4.8 | 0.00 | 0.00 | 0.00 | 55 | 1024.0 |
| 20260902030822 | 20 | 222 | 4.8 | 8.0 | 0.00 | 0.00 | 0.00 | 55 | 1024.0 |
| 20260902030322 | 20 | 219 | 6.4 | 9.7 | 0.00 | 0.00 | 0.00 | 54 | 1024.0 |
| 20260902025824 | 20 | 183 | 8.0 | 9.7 | 0.00 | 0.00 | 0.00 | 53 | 1024.0 |
| 20260902025324 | 20 | 178 | 8.0 | 12.9 | 0.00 | 0.00 | 0.00 | 53 | 1024.0 |
| 20260902024822 | 20 | 184 | 6.4 | 8.0 | 0.00 | 0.00 | 0.00 | 54 | 1023.0 |
| 20260902024322 | 20 | 195 | 4.8 | 8.0 | 0.00 | 0.00 | 0.00 | 55 | 1023.0 |
| 20260902023823 | 20 | 196 | 4.8 | 6.4 | 0.00 | 0.00 | 0.00 | 55 | 1023.0 |
| 20260902023324 | 20 | 190 | 3.2 | 4.8 | 0.00 | 0.00 | 0.00 | 54 | 1023.0 |
| 20260902022824 | 20 | 184 | 4.8 | 6.4 | 0.00 | 0.00 | 0.00 | 53 | 1023.0 |
| 20260902022323 | 20 | 179 | 6.4 | 9.7 | 0.00 | 0.00 | 0.00 | 52 | 1023.0 |
| 20260902021822 | 21 | 164 | 6.4 | 9.7 | 0.00 | 0.00 | 0.00 | 52 | 1023.0 |
| 20260902021322 | 21 | 162 | 8.0 | 9.7 | 0.00 | 0.00 | 0.00 | 52 | 1023.0 |
| 20260902020823 | 21 | 153 | 8.0 | 11.3 | 0.00 | 0.00 | 0.00 | 51 | 1023.0 |
| 20260902020324 | 21 | 158 | 9.7 | 12.9 | 0.00 | 0.00 | 0.00 | 50 | 1023.0 |
| 20260902015822 | 21 | 162 | 9.7 | 14.5 | 0.00 | 0.00 | 0.00 | 51 | 1023.0 |
| 20260902015322 | 21 | 175 | 8.0 | 11.3 | 0.00 | 0.00 | 0.00 | 51 | 1023.0 |
| 20260902014823 | 22 | 171 | 9.7 | 12.9 | 0.00 | 0.00 | 0.00 | 50 | 1022.0 |
| 20260902014322 | 22 | 178 | 11.3 | 14.5 | 0.00 | 0.00 | 0.00 | 49 | 1022.0 |
| 20260902013822 | 22 | 168 | 11.3 | 14.5 | 0.00 | 0.00 | 0.00 | 48 | 1022.0 |
| 20260902013322 | 22 | 166 | 14.5 | 17.7 | 0.00 | 0.00 | 0.00 | 47 | 1022.0 |
| 20260902012822 | 22 | 164 | 11.3 | 14.5 | 0.00 | 0.00 | 0.00 | 45 | 1022.0 |
| 20260902012322 | 23 | 174 | 12.9 | 17.7 | 0.00 | 0.00 | 0.00 | 44 | 1022.0 |
| 20260902011822 | 23 | 189 | 6.4 | 12.9 | 0.00 | 0.00 | 0.00 | 41 | 1022.0 |
| 20260902011322 | 23 | 180 | 6.4 | 11.3 | 0.00 | 0.00 | 0.00 | 41 | 1022.0 |
| 20260902010822 | 23 | 191 | 4.8 | 6.4 | 0.00 | 0.00 | 0.00 | 40 | 1022.0 |
| 20260902010323 | 23 | 179 | 8.0 | 11.3 | 0.00 | 0.00 | 0.00 | 40 | 1022.0 |
| 20260902005822 | 23 | 176 | 9.7 | 12.9 | 0.00 | 0.00 | 0.00 | 39 | 1022.0 |
| 20260902005323 | 23 | 177 | 9.7 | 14.5 | 0.00 | 0.00 | 0.00 | 39 | 1022.0 |
| 20260902004821 | 24 | 170 | 12.9 | 17.7 | 0.00 | 0.00 | 0.00 | 38 | 1022.0 |
| 20260902004322 | 24 | 189 | 6.4 | 8.0 | 0.00 | 0.00 | 0.00 | 39 | 1022.0 |
| 20260902003822 | 24 | 166 | 9.7 | 12.9 | 0.00 | 0.00 | 0.00 | 38 | 1022.0 |
| 20260902003323 | 24 | 175 | 9.7 | 12.9 | 0.00 | 0.00 | 0.00 | 37 | 1022.0 |
| 20260902002822 | 25 | 160 | 9.7 | 14.5 | 0.00 | 0.00 | 0.00 | 36 | 1022.0 |
| 20260902002324 | 25 | 174 | 11.3 | 14.5 | 0.00 | 0.00 | 0.00 | 35 | 1022.0 |
| 20260902001824 | 25 | 174 | 9.7 | 14.5 | 0.00 | 0.00 | 0.00 | 34 | 1022.0 |
| 20260902001322 | 25 | 171 | 12.9 | 16.1 | 0.00 | 0.00 | 0.00 | 31 | 1022.0 |
| 20260902000823 | 26 | 170 | 8.0 | 11.3 | 0.00 | 0.00 | 0.00 | 29 | 1022.0 |
| 20260902000323 | 26 | 183 | 8.0 | 11.3 | 0.00 | 0.00 | 0.00 | 29 | 1022.0 |
| 20260901235822 | 26 | 170 | 8.0 | 11.3 | 0.00 | 0.00 | 0.00 | 29 | 1022.0 |
| 20260901235324 | 26 | 165 | 8.0 | 11.3 | 0.00 | 0.00 | 0.00 | 30 | 1022.0 |
| 20260901234822 | 26 | 156 | 8.0 | 12.9 | 0.00 | 0.00 | 0.00 | 30 | 1022.0 |
| 20260901234323 | 26 | 147 | 9.7 | 11.3 | 0.00 | 0.00 | 0.00 | 30 | 1022.0 |
| 20260901233822 | 26 | 157 | 9.7 | 12.9 | 0.00 | 0.00 | 0.00 | 29 | 1022.0 |
| 20260901233323 | 26 | 149 | 6.4 | 9.7 | 0.00 | 0.00 | 0.00 | 30 | 1022.0 |
| 20260901232822 | 26 | 175 | 8.0 | 11.3 | 0.00 | 0.00 | 0.00 | 29 | 1022.0 |
| 20260901232322 | 26 | 154 | 6.4 | 8.0 | 0.00 | 0.00 | 0.00 | 29 | 1022.0 |
| 20260901231823 | 26 | 144 | 6.4 | 9.7 | 0.00 | 0.00 | 0.00 | 29 | 1022.0 |
| 20260901231323 | 26 | 151 | 9.7 | 12.9 | 0.00 | 0.00 | 0.00 | 29 | 1022.0 |
| 20260901230822 | 26 | 198 | 4.8 | 6.4 | 0.00 | 0.00 | 0.00 | 29 | 1022.0 |
| 20260901230322 | 26 | 159 | 9.7 | 14.5 | 0.00 | 0.00 | 0.00 | 29 | 1022.0 |
| 20260901225822 | 27 | 142 | 11.3 | 14.5 | 0.00 | 0.00 | 0.00 | 29 | 1022.0 |
| 20260901225322 | 27 | 149 | 9.7 | 14.5 | 0.00 | 0.00 | 0.00 | 29 | 1022.0 |
| 20260901224823 | 27 | 161 | 12.9 | 16.1 | 0.00 | 0.00 | 0.00 | 29 | 1022.0 |
| 20260901224322 | 27 | 166 | 11.3 | 14.5 | 0.00 | 0.00 | 0.00 | 28 | 1022.0 |
| 20260901223822 | 27 | 132 | 8.0 | 11.3 | 0.00 | 0.00 | 0.00 | 29 | 1022.0 |
| 20260901223322 | 27 | 210 | 8.0 | 9.7 | 0.00 | 0.00 | 0.00 | 28 | 1022.0 |
| 20260901222822 | 27 | 148 | 4.8 | 8.0 | 0.00 | 0.00 | 0.00 | 29 | 1022.0 |
| 20260901222323 | 27 | 160 | 9.7 | 14.5 | 0.00 | 0.00 | 0.00 | 29 | 1022.0 |
| 20260901221822 | 27 | 166 | 8.0 | 11.3 | 0.00 | 0.00 | 0.00 | 29 | 1022.0 |
| 20260901221322 | 27 | 246 | 11.3 | 16.1 | 0.00 | 0.00 | 0.00 | 27 | 1022.0 |
| 20260901220822 | 27 | 313 | 8.0 | 12.9 | 0.00 | 0.00 | 0.00 | 26 | 1022.0 |
| 20260901220323 | 27 | 306 | 9.7 | 11.3 | 0.00 | 0.00 | 0.00 | 26 | 1022.0 |
| 20260901215825 | 27 | 278 | 9.7 | 14.5 | 0.00 | 0.00 | 0.00 | 27 | 1022.0 |
| 20260901215322 | 27 | 192 | 8.0 | 9.7 | 0.00 | 0.00 | 0.00 | 29 | 1023.0 |
| 20260901214822 | 27 | 193 | 6.4 | 9.7 | 0.00 | 0.00 | 0.00 | 33 | 1022.0 |
| 20260901214322 | 27 | 172 | 9.7 | 14.5 | 0.00 | 0.00 | 0.00 | 31 | 1022.0 |
| 20260901213823 | 27 | 188 | 8.0 | 12.9 | 0.00 | 0.00 | 0.00 | 30 | 1023.0 |
| 20260901213323 | 27 | 194 | 8.0 | 9.7 | 0.00 | 0.00 | 0.00 | 31 | 1023.0 |
| 20260901212822 | 27 | 117 | 6.4 | 9.7 | 0.00 | 0.00 | 0.00 | 31 | 1023.0 |
| 20260901212323 | 27 | 143 | 6.4 | 9.7 | 0.00 | 0.00 | 0.00 | 31 | 1023.0 |
| 20260901211822 | 27 | 163 | 11.3 | 14.5 | 0.00 | 0.00 | 0.00 | 32 | 1023.0 |
| 20260901211322 | 26 | 154 | 14.5 | 17.7 | 0.00 | 0.00 | 0.00 | 32 | 1023.0 |
| 20260901210822 | 27 | 163 | 11.3 | 14.5 | 0.00 | 0.00 | 0.00 | 30 | 1023.0 |
| 20260901210323 | 27 | 208 | 6.4 | 9.7 | 0.00 | 0.00 | 0.00 | 27 | 1023.0 |
| 20260901205825 | 27 | 337 | 4.8 | 8.0 | 0.00 | 0.00 | 0.00 | 30 | 1023.0 |
| 20260901205323 | 27 | 155 | 4.8 | 8.0 | 0.00 | 0.00 | 0.00 | 31 | 1023.0 |
| 20260901204822 | 26 | 174 | 8.0 | 12.9 | 0.00 | 0.00 | 0.00 | 31 | 1023.0 |
| 20260901204323 | 26 | 263 | 6.4 | 12.9 | 0.00 | 0.00 | 0.00 | 26 | 1023.0 |
| 20260901203822 | 26 | 236 | 24.1 | 32.2 | 0.00 | 0.00 | 0.00 | 31 | 1023.0 |
| 20260901203323 | 26 | 172 | 12.9 | 19.3 | 0.00 | 0.00 | 0.00 | 29 | 1023.0 |
| 20260901202826 | 27 | 140 | 6.4 | 9.7 | 0.00 | 0.00 | 0.00 | 30 | 1023.0 |
| 20260901201840 | 26 | 170 | 1.6 | 4.8 | 0.00 | 0.00 | 0.00 | 28 | 1023.0 |
| 20260901201322 | 27 | 198 | 4.8 | 8.0 | 0.00 | 0.00 | 0.00 | 28 | 1023.0 |
| 20260901200822 | 26 | 328 | 8.0 | 12.9 | 0.00 | 0.00 | 0.00 | 27 | 1023.0 |
| 20260901200325 | 26 | 254 | 9.7 | 14.5 | 0.00 | 0.00 | 0.00 | 28 | 1023.0 |
| 20260901195822 | 26 | 274 | 6.4 | 12.9 | 0.00 | 0.00 | 0.00 | 29 | 1023.0 |
| 20260901195322 | 26 | 81 | 4.8 | 9.7 | 0.00 | 0.00 | 0.00 | 28 | 1023.0 |
| 20260901194822 | 26 | 211 | 9.7 | 16.1 | 0.00 | 0.00 | 0.00 | 28 | 1024.0 |
| 20260901194323 | 26 | 146 | 8.0 | 14.5 | 0.00 | 0.00 | 0.00 | 35 | 1024.0 |
| 20260901193828 | 26 | 105 | 6.4 | 9.7 | 0.00 | 0.00 | 0.00 | 32 | 1024.0 |
| 20260901193322 | 26 | 231 | 4.8 | 11.3 | 0.00 | 0.00 | 0.00 | 30 | 1024.0 |
| 20260901192822 | 26 | 177 | 6.4 | 11.3 | 0.00 | 0.00 | 0.00 | 32 | 1024.0 |
| 20260901192323 | 26 | 138 | 4.8 | 8.0 | 0.00 | 0.00 | 0.00 | 29 | 1024.0 |
| 20260901191822 | 25 | 222 | 8.0 | 14.5 | 0.00 | 0.00 | 0.00 | 31 | 1024.0 |
| 20260901191323 | 25 | 208 | 11.3 | 16.1 | 0.00 | 0.00 | 0.00 | 34 | 1024.0 |
| 20260901190822 | 25 | 287 | 9.7 | 16.1 | 0.00 | 0.00 | 0.00 | 31 | 1024.0 |
| 20260901190323 | 25 | 258 | 12.9 | 19.3 | 0.00 | 0.00 | 0.00 | 30 | 1024.0 |
| 20260901185825 | 25 | 212 | 6.4 | 9.7 | 0.00 | 0.00 | 0.00 | 32 | 1024.0 |
| 20260901185322 | 25 | 255 | 16.1 | 19.3 | 0.00 | 0.00 | 0.00 | 31 | 1024.0 |
| 20260901184823 | 25 | 238 | 8.0 | 12.9 | 0.00 | 0.00 | 0.00 | 33 | 1024.0 |
| 20260901184324 | 25 | 279 | 9.7 | 14.5 | 0.00 | 0.00 | 0.00 | 33 | 1024.0 |
| 20260901183822 | 25 | 279 | 12.9 | 22.5 | 0.00 | 0.00 | 0.00 | 33 | 1024.0 |
| 20260901183322 | 25 | 268 | 4.8 | 8.0 | 0.00 | 0.00 | 0.00 | 31 | 1024.0 |
| 20260901182822 | 25 | 258 | 9.7 | 16.1 | 0.00 | 0.00 | 0.00 | 31 | 1024.0 |
| 20260901182323 | 25 | 287 | 6.4 | 11.3 | 0.00 | 0.00 | 0.00 | 33 | 1024.0 |
| 20260901181822 | 25 | 279 | 11.3 | 16.1 | 0.00 | 0.00 | 0.00 | 32 | 1024.0 |
| 20260901181322 | 25 | 284 | 9.7 | 16.1 | 0.00 | 0.00 | 0.00 | 32 | 1024.0 |
| 20260901180823 | 25 | 237 | 9.7 | 14.5 | 0.00 | 0.00 | 0.00 | 34 | 1024.0 |
| 20260901180324 | 24 | 219 | 8.0 | 11.3 | 0.00 | 0.00 | 0.00 | 34 | 1024.0 |
| 20260901175823 | 24 | 284 | 8.0 | 12.9 | 0.00 | 0.00 | 0.00 | 36 | 1025.0 |
| 20260901175322 | 23 | 290 | 12.9 | 19.3 | 0.00 | 0.00 | 0.00 | 35 | 1025.0 |
| 20260901174827 | 23 | 278 | 12.9 | 19.3 | 0.00 | 0.00 | 0.00 | 37 | 1025.0 |
| 20260901174323 | 23 | 290 | 9.7 | 14.5 | 0.00 | 0.00 | 0.00 | 38 | 1025.0 |
| 20260901173823 | 23 | 246 | 11.3 | 17.7 | 0.00 | 0.00 | 0.00 | 37 | 1025.0 |
| 20260901173324 | 23 | 236 | 12.9 | 16.1 | 0.00 | 0.00 | 0.00 | 39 | 1025.0 |
| 20260901172822 | 23 | 268 | 11.3 | 14.5 | 0.00 | 0.00 | 0.00 | 39 | 1025.0 |
| 20260901172323 | 23 | 290 | 4.8 | 8.0 | 0.00 | 0.00 | 0.00 | 39 | 1025.0 |
| 20260901171842 | 23 | 263 | 6.4 | 9.7 | 0.00 | 0.00 | 0.00 | 40 | 1025.0 |
| 20260901171323 | 22 | 280 | 11.3 | 22.5 | 0.00 | 0.00 | 0.00 | 39 | 1025.0 |
| 20260901170823 | 22 | 251 | 9.7 | 20.9 | 0.00 | 0.00 | 0.00 | 40 | 1025.0 |
| 20260901170322 | 22 | 254 | 12.9 | 16.1 | 0.00 | 0.00 | 0.00 | 40 | 1025.0 |
| 20260901165824 | 21 | 240 | 14.5 | 19.3 | 0.00 | 0.00 | 0.00 | 40 | 1025.0 |
| 20260901165323 | 21 | 272 | 8.0 | 12.9 | 0.00 | 0.00 | 0.00 | 45 | 1025.0 |
| 20260901164823 | 21 | 255 | 9.7 | 14.5 | 0.00 | 0.00 | 0.00 | 45 | 1026.0 |
| 20260901164325 | 20 | 277 | 9.7 | 12.9 | 0.00 | 0.00 | 0.00 | 46 | 1026.0 |
| 20260901163823 | 20 | 242 | 11.3 | 17.7 | 0.00 | 0.00 | 0.00 | 46 | 1026.0 |
| 20260901163322 | 20 | 244 | 4.8 | 8.0 | 0.00 | 0.00 | 0.00 | 48 | 1026.0 |
| 20260901162832 | 20 | 248 | 6.4 | 9.7 | 0.00 | 0.00 | 0.00 | 49 | 1025.0 |
| 20260901162322 | 20 | 281 | 6.4 | 12.9 | 0.00 | 0.00 | 0.00 | 49 | 1025.0 |
| 20260901161823 | 20 | 252 | 9.7 | 12.9 | 0.00 | 0.00 | 0.00 | 48 | 1025.0 |
| 20260901161324 | 20 | 247 | 6.4 | 8.0 | 0.00 | 0.00 | 0.00 | 48 | 1025.0 |
| 20260901160824 | 19 | 261 | 4.8 | 6.4 | 0.00 | 0.00 | 0.00 | 52 | 1025.0 |
| 20260901160322 | 19 | 276 | 4.8 | 9.7 | 0.00 | 0.00 | 0.00 | 52 | 1025.0 |
| 20260901155824 | 19 | 285 | 8.0 | 12.9 | 0.00 | 0.00 | 0.00 | 54 | 1025.0 |
| 20260901155323 | 18 | 271 | 4.8 | 8.0 | 0.00 | 0.00 | 0.00 | 55 | 1025.0 |
| 20260901154822 | 18 | 271 | 6.4 | 9.7 | 0.00 | 0.00 | 0.00 | 55 | 1025.0 |
| 20260901154322 | 18 | 286 | 6.4 | 8.0 | 0.00 | 0.00 | 0.00 | 55 | 1025.0 |
| 20260901153822 | 18 | 277 | 4.8 | 9.7 | 0.00 | 0.00 | 0.00 | 57 | 1025.0 |
| 20260901153323 | 18 | 259 | 3.2 | 6.4 | 0.00 | 0.00 | 0.00 | 57 | 1025.0 |
| 20260901152822 | 17 | 238 | 1.6 | 8.0 | 0.00 | 0.00 | 0.00 | 59 | 1025.0 |
| 20260901152323 | 17 | 7 | 3.2 | 6.4 | 0.00 | 0.00 | 0.00 | 60 | 1025.0 |
| 20260901151823 | 18 | 313 | 1.6 | 4.8 | 0.00 | 0.00 | 0.00 | 60 | 1025.0 |
| 20260901151323 | 17 | 270 | 8.0 | 12.9 | 0.00 | 0.00 | 0.00 | 55 | 1025.0 |
| 20260901150825 | 16 | 16 | 1.6 | 3.2 | 0.00 | 0.00 | 0.00 | 62 | 1025.0 |
| 20260901150323 | 16 | 291 | 4.8 | 8.0 | 0.00 | 0.00 | 0.00 | 69 | 1025.0 |
| 20260901145825 | 16 | 270 | 0.0 | 1.6 | 0.00 | 0.00 | 0.00 | 71 | 1025.0 |
| 20260901145322 | 16 | 207 | 3.2 | 4.8 | 0.00 | 0.00 | 0.00 | 69 | 1025.0 |
| 20260901144823 | 17 | 124 | 0.0 | 3.2 | 0.00 | 0.00 | 0.00 | 67 | 1025.0 |
| 20260901144322 | 17 | 360 | 0.0 | 0.0 | 0.00 | 0.00 | 0.00 | 61 | 1025.0 |
| 20260901143822 | 17 | 201 | 1.6 | 3.2 | 0.00 | 0.00 | 0.00 | 60 | 1025.0 |
| 20260901143322 | 17 | 291 | 3.2 | 4.8 | 0.00 | 0.00 | 0.00 | 62 | 1025.0 |
| 20260901142823 | 17 | 154 | 1.6 | 3.2 | 0.00 | 0.00 | 0.00 | 64 | 1025.0 |
| 20260901142323 | 17 | 146 | 4.8 | 4.8 | 0.00 | 0.00 | 0.00 | 64 | 1025.0 |
| 20260901141823 | 17 | 208 | 6.4 | 9.7 | 0.00 | 0.00 | 0.00 | 61 | 1025.0 |
| 20260901141323 | 16 | 313 | 3.2 | 4.8 | 0.00 | 0.00 | 0.00 | 62 | 1025.0 |
| 20260901140822 | 16 | 343 | 1.6 | 3.2 | 0.00 | 0.00 | 0.00 | 63 | 1025.0 |
| 20260901140323 | 16 | 35 | 4.8 | 8.0 | 0.00 | 0.00 | 0.00 | 63 | 1025.0 |
| 20260901135822 | 15 | 282 | 9.7 | 14.5 | 0.00 | 0.00 | 0.00 | 66 | 1025.0 |
| 20260901135322 | 14 | 80 | 0.0 | 3.2 | 0.00 | 0.00 | 0.00 | 77 | 1025.0 |
| 20260901134822 | 13 | 89 | 3.2 | 6.4 | 0.00 | 0.00 | 0.00 | 80 | 1025.0 |
| 20260901134323 | 13 | 354 | 3.2 | 4.8 | 0.00 | 0.00 | 0.00 | 83 | 1025.0 |
| 20260901133831 | 13 | 350 | 3.2 | 8.0 | 0.00 | 0.00 | 0.00 | 85 | 1025.0 |
| 20260901133323 | 13 | 23 | 4.8 | 8.0 | 0.00 | 0.00 | 0.00 | 85 | 1025.0 |
| 20260901132823 | 13 | 346 | 4.8 | 8.0 | 0.00 | 0.00 | 0.00 | 85 | 1025.0 |
| 20260901131833 | 12 | 342 | 1.6 | 3.2 | 0.00 | 0.00 | 0.00 | 86 | 1025.0 |
| 20260901131326 | 12 | 2 | 3.2 | 4.8 | 0.00 | 0.00 | 0.00 | 86 | 1024.0 |
| 20260901130823 | 12 | 343 | 3.2 | 6.4 | 0.00 | 0.00 | 0.00 | 86 | 1024.0 |
| 20260901130322 | 12 | 325 | 3.2 | 4.8 | 0.00 | 0.00 | 0.00 | 86 | 1024.0 |
| 20260901125822 | 12 | 359 | 3.2 | 4.8 | 0.00 | 0.00 | 0.00 | 86 | 1024.0 |
| 20260901125323 | 12 | 70 | 0.0 | 1.6 | 0.00 | 0.00 | 0.00 | 86 | 1024.0 |
| 20260901124823 | 13 | 305 | 0.0 | 3.2 | 0.00 | 0.00 | 0.00 | 85 | 1024.0 |
| 20260901124324 | 12 | 334 | 3.2 | 4.8 | 0.00 | 0.00 | 0.00 | 85 | 1024.0 |
| 20260901123823 | 12 | 309 | 3.2 | 4.8 | 0.00 | 0.00 | 0.00 | 86 | 1024.0 |
| 20260901123322 | 12 | 323 | 1.6 | 3.2 | 0.00 | 0.00 | 0.00 | 86 | 1024.0 |
| 20260901122822 | 12 | 306 | 6.4 | 6.4 | 0.00 | 0.00 | 0.00 | 86 | 1024.0 |
| 20260901122323 | 13 | 359 | 3.2 | 4.8 | 0.00 | 0.00 | 0.00 | 86 | 1024.0 |
| 20260901121824 | 13 | 343 | 0.0 | 3.2 | 0.00 | 0.00 | 0.00 | 86 | 1024.0 |
| 20260901121323 | 13 | 19 | 1.6 | 3.2 | 0.00 | 0.00 | 0.00 | 86 | 1024.0 |
| 20260901120825 | 13 | 283 | 1.6 | 3.2 | 0.00 | 0.00 | 0.00 | 86 | 1024.0 |
| 20260901120323 | 13 | 287 | 3.2 | 6.4 | 0.00 | 0.00 | 0.00 | 85 | 1024.0 |
| 20260901115823 | 13 | 290 | 3.2 | 6.4 | 0.00 | 0.00 | 0.00 | 84 | 1024.0 |
| 20260901115322 | 13 | 274 | 0.0 | 1.6 | 0.00 | 0.00 | 0.00 | 84 | 1024.0 |
| 20260901114823 | 13 | 296 | 1.6 | 3.2 | 0.00 | 0.00 | 0.00 | 83 | 1024.0 |
| 20260901114323 | 13 | 124 | 0.0 | 1.6 | 0.00 | 0.00 | 0.00 | 83 | 1024.0 |
| 20260901113822 | 13 | 140 | 3.2 | 4.8 | 0.00 | 0.00 | 0.00 | 83 | 1024.0 |
| 20260901113322 | 13 | 132 | 3.2 | 6.4 | 0.00 | 0.00 | 0.00 | 83 | 1024.0 |
| 20260901112823 | 13 | 158 | 0.0 | 1.6 | 0.00 | 0.00 | 0.00 | 82 | 1024.0 |
| 20260901112323 | 13 | 360 | 0.0 | 0.0 | 0.00 | 0.00 | 0.00 | 82 | 1024.0 |
| 20260901111823 | 13 | 360 | 0.0 | 0.0 | 0.00 | 0.00 | 0.00 | 81 | 1024.0 |
| 20260901111322 | 13 | 217 | 3.2 | 3.2 | 0.00 | 0.00 | 0.00 | 81 | 1024.0 |
| 20260901110822 | 13 | 178 | 1.6 | 3.2 | 0.00 | 0.00 | 0.00 | 82 | 1024.0 |
| 20260901110322 | 13 | 274 | 0.0 | 1.6 | 0.00 | 0.00 | 0.00 | 82 | 1024.0 |
| 20260901105823 | 13 | 285 | 1.6 | 3.2 | 0.00 | 0.00 | 0.00 | 82 | 1024.0 |
| 20260901105322 | 13 | 296 | 1.6 | 3.2 | 0.00 | 0.00 | 0.00 | 83 | 1025.0 |
| 20260901104822 | 13 | 270 | 0.0 | 1.6 | 0.00 | 0.00 | 0.00 | 83 | 1025.0 |
| 20260901104323 | 13 | 257 | 0.0 | 1.6 | 0.00 | 0.00 | 0.00 | 83 | 1025.0 |
| 20260901103823 | 13 | 265 | 1.6 | 3.2 | 0.00 | 0.00 | 0.00 | 83 | 1025.0 |
| 20260901103322 | 13 | 228 | 1.6 | 3.2 | 0.00 | 0.00 | 0.00 | 83 | 1025.0 |
| 20260901102823 | 13 | 42 | 0.0 | 3.2 | 0.00 | 0.00 | 0.00 | 83 | 1025.0 |
| 20260901102322 | 13 | 30 | 1.6 | 4.8 | 0.00 | 0.00 | 0.00 | 82 | 1025.0 |
| 20260901101822 | 13 | 18 | 0.0 | 1.6 | 0.00 | 0.00 | 0.00 | 83 | 1024.0 |
| 20260901101322 | 13 | 346 | 0.0 | 1.6 | 0.00 | 0.00 | 0.00 | 82 | 1024.0 |
| 20260901100826 | 13 | 334 | 0.0 | 3.2 | 0.00 | 0.00 | 0.00 | 82 | 1024.0 |
| 20260901100322 | 13 | 360 | 0.0 | 0.0 | 0.00 | 0.00 | 0.00 | 80 | 1024.0 |